Regional Weather Roundup
Issued by NWS

Home | Current Version | Previous Version | Text Only | Print | Product List | Glossary Off
Versions: 1 2 3 4 5 6 7 8 9 10 11 12 13 14 15 16 17 18 19 20 21 22 23 24 25 26 27

000
ASUS45 KBOU 251507
RWRCO

WEATHER ROUNDUP FOR COLORADO
NATIONAL WEATHER SERVICE DENVER/BOULDER CO
900 AM MDT THU AUG 25 2016

NOTE: "FAIR" INDICATES FEW OR NO CLOUDS BELOW 12000 FEET WITH NO
SIGNIFICANT WEATHER AND/OR OBSTRUCTIONS TO VISIBILITY.

COZ001>005-013-030-031-251600-
...NORTHWEST COLORADO...

CITY           SKY/WX    TMP DP  RH WIND       PRES   REMARKS
CRAIG          FAIR      53  39  59 CALM      30.30S
HAYDEN         FAIR      52  36  54 CALM      30.31S
MEEKER         FAIR      50  41  71 CALM      30.29R
MOUNT WERNER   NOT AVBL
STEAMBOAT SPGS FAIR      49  37  65 CALM      30.31S
WALDEN         FAIR      50  36  57 SE3       30.37S
$$

COZ006>008-011-251600-
...WEST CENTRAL VALLEYS...

CITY           SKY/WX    TMP DP  RH WIND       PRES   REMARKS
GRAND JUNCTION PTSUNNY   63  43  48 E9        30.20R
MONTROSE       FAIR      60  42  51 CALM      30.26F
EAGLE          SUNNY     54  37  54 CALM      30.33S
RIFLE          FAIR      56  44  64 CALM      30.24S
DELTA          FAIR      63  44  49 E7        30.24S
NUCLA          FAIR      61  41  48 E5        30.29S
$$

COZ017>023-064>068-251600-
...SOUTHWEST COLORADO...

CITY           SKY/WX    TMP DP  RH WIND       PRES   REMARKS
DURANGO        FAIR      56  45  66 CALM      30.32S
CORTEZ         FAIR      60  48  64 CALM      30.26R
PAGOSA SPRINGS FAIR      54  47  77 CALM      30.39R
TELLURIDE      FAIR      52  38  59 SE3       30.46S
WOLF CREEK PAS FAIR      41  37  87 S9        30.62R
$$

COZ009-010-012-014-032>034-037-058>063-251600-
...CENTRAL COLORADO...

CITY           SKY/WX    TMP DP  RH WIND       PRES   REMARKS
ASPEN          FAIR      55  37  50 CALM      30.34R
BUENA VISTA    FAIR      51  41  69 N3        30.40S
COPPER MTN     FAIR      50  30  46 CALM      30.57S
BERTHOUD PASS  FAIR      37  27  65 SW3       30.60R
COTTONWOOD PAS FAIR      50  45  81 E3        30.47R
GUNNISON       FAIR      48  39  71 SE3       30.42S
KREMMLING      FAIR      50  37  62 CALM      30.37S
LEADVILLE      FAIR      45  37  73 VRB3      30.46R
MONARCH PASS   FAIR      39  34  81 W16       30.68R
SALIDA         FAIR      53  45  76 CALM      30.45S
SUNLIGHT       FAIR      50  36  57 N7        30.53R
WILKERSON PASS FAIR      46  32  57 W3        30.57R
$$

COZ069>075-251600-
...SAN LUIS VALLEY/SANGRE DE CRISTO MOUNTAINS...

CITY           SKY/WX    TMP DP  RH WIND       PRES   REMARKS
ALAMOSA        FAIR      49  46  90 CALM      30.39S
LA VETA PASS   FAIR      46  41  81 S5        30.50R
SAGUACHE       FAIR      52  43  71 NW8       30.40S
$$

COZ035-036-038>040-251600-
...NORTHERN COLORADO FRONT RANGE...

CITY           SKY/WX    TMP DP  RH WIND       PRES   REMARKS
DENVER INTL AP FOG       52  48  86 W12       30.29R VSB 3/4
DMNS CITY PARK   N/A     55  46  72 N12       30.31R
AURORA         MOSUNNY   55  50  86 NW10      30.30R
FRONT RANGE AP PTSUNNY   59  48  67 W8        30.29R
ERIE MUNI ARPT FAIR      56  48  75 N8        30.30R
BOULDER MUN AP FAIR      55  46  71 N6        30.30R
CENTENNIAL     FAIR      56  48  74 NW9       30.30R
BROOMFIELD     PTSUNNY   55  48  76 N14       30.31R
FORT COLLINS   FAIR      55  48  76 N13       30.31R
LONGMONT       FAIR      60  47  64 N12       30.31R
$$

COZ041-046-047-076>085-087-088-251600-
...PIKES PEAK/PALMER DIVIDE AND SOUTHERN FOOTHILLS...

CITY           SKY/WX    TMP DP  RH WIND       PRES   REMARKS
COLO. SPRINGS  FAIR      57  41  55 CALM      30.31R
A. F. ACADEMY  FAIR      55  46  69 N7        30.31R
SCHRIEVER AFB  NOT AVBL
ELLICOTT       NOT AVBL
FALCON         FAIR      59  46  60 S7        30.34R
FORT CARSON    NOT AVBL
LIMON          FAIR      60  41  49 S7        30.28S
MONUMENT HILL  FAIR      55  45  67 NW8       30.35R
TRINIDAD       FAIR      60  48  64 SW10      30.29R
$$

COZ042>045-048>051-090-091-251600-
...NORTHEAST COLORADO...

CITY           SKY/WX    TMP DP  RH WIND       PRES   REMARKS
GREELEY ARPT   FAIR      55  46  71 NW3       30.30R
AKRON          FAIR      60  43  53 E10       30.28R
BURLINGTON     FAIR      60  48  64 SE9       30.27R
WRAY           NOT AVBL
STERLING       FAIR      61  43  51 NE8       30.26S
HOLYOKE        FAIR      64  46  52 NE10      30.27R
FORT MORGAN    FAIR      60  40  48 NE7       30.29R
$$

COZ086-089-092>099-251600-
...SOUTHEAST COLORADO...

CITY           SKY/WX    TMP DP  RH WIND       PRES   REMARKS
PUEBLO         FAIR      60  45  57 SE3       30.26R
LA JUNTA       FAIR      63  49  60 E9        30.24S
LAMAR          FAIR      63  54  72 E6        30.22R
SPRINGFIELD      N/A     61  56  83 NE6       30.24S
$$




USA.gov is the U.S. government's official web portal to all federal, state and local government web resources and services.